Wind_Speed
58 62 65 65 65 65 64 65 67 68 68 69 69 67 64 62 61 61 58 48 39 35 33 33 36 38 39 40 41 42 43 44 44 44 45 45 46 46 46 46 45 42 39 38 37 36 35 34 34 33 31 29 31 31 31 31 31 31 30 30 31 31 31 31 31 31 31 33 34 35 35 35 35 35 35 34 33 32 30 29 29 28 27 26 25 23 21
57 60 65 66 66 66 65 64 65 67 68 69 69 67 64 63 63 60 54 46 41 36 32 32 37 40 41 42 42 42 43 44 45 45 46 46 47 49 49 48 47 45 42 39 38 38 38 37 36 35 33 31 31 32 32 32 31 31 31 31 31 31 30 30 31 32 33 33 34 35 34 34 34 34 35 34 33 32 31 30 29 29 27 26 25 23 22
55 57 62 66 66 65 65 64 63 66 68 69 69 67 65 65 63 59 52 46 42 37 33 34 39 41 43 42 41 42 43 45 46 47 47 48 49 51 52 51 50 48 44 41 40 40 40 38 36 35 33 32 32 32 32 32 32 31 31 31 31 30 30 30 31 32 32 33 34 34 34 34 34 34 34 34 33 32 31 30 29 28 27 26 25 24 23
55 55 58 64 66 65 65 64 63 65 68 69 68 67 66 65 63 59 53 46 42 39 35 36 41 43 44 42 41 41 43 45 48 48 48 48 51 53 54 53 51 48 46 44 41 40 40 37 35 34 33 32 33 32 32 32 32 32 32 31 31 31 31 32 32 31 31 32 33 33 33 34 34 34 34 33 33 31 30 30 29 28 27 26 25 25 24
54 53 55 61 65 66 66 65 63 64 67 69 68 67 67 66 63 59 53 47 43 40 36 37 41 44 44 42 40 39 41 44 47 48 47 48 49 50 48 45 43 43 45 46 43 41 39 36 33 32 32 32 32 31 32 33 33 32 32 32 32 33 33 32 31 30 31 31 32 33 33 34 34 34 33 33 32 31 31 30 29 28 27 26 26 25 24
52 53 54 57 63 67 67 65 62 64 67 68 68 68 68 67 64 59 53 47 44 41 38 38 40 42 43 41 38 37 38 43 46 47 46 45 43 41 39 38 39 41 44 46 45 42 39 35 32 32 32 32 31 31 32 34 34 32 32 32 34 34 34 32 31 30 30 30 31 32 33 33 34 33 32 32 32 31 31 30 28 27 26 26 26 25 23
48 51 53 55 61 67 68 64 61 64 66 67 68 69 69 68 64 59 54 49 45 42 40 40 40 41 41 40 37 35 36 39 42 40 37 35 34 34 34 35 37 41 44 46 46 44 40 36 34 34 33 32 32 32 34 35 34 33 32 33 35 35 34 33 31 30 29 29 30 31 31 32 32 31 31 31 31 31 30 29 27 27 26 26 26 25 23
43 49 54 56 60 66 67 64 61 63 66 66 67 69 69 67 64 60 55 50 46 44 42 42 42 41 40 39 37 35 35 35 33 29 26 27 29 30 31 33 35 38 41 44 45 44 41 38 37 36 35 34 32 32 35 36 35 33 33 34 35 36 35 33 31 30 29 29 29 29 29 29 29 30 30 30 30 30 29 28 27 27 26 26 26 25 24
40 47 54 56 56 60 65 65 61 63 66 66 66 68 69 67 64 61 56 50 47 46 45 44 43 42 41 40 37 36 36 33 28 25 25 26 27 28 31 34 36 37 39 41 43 44 42 40 39 38 37 35 32 33 36 37 35 34 34 35 36 36 35 33 31 30 29 29 29 28 28 27 27 28 29 29 30 29 28 28 27 27 26 26 26 25 24
38 44 52 55 54 57 63 64 62 63 65 66 66 67 68 67 65 62 56 51 49 48 47 45 44 44 44 42 39 37 36 32 30 30 29 26 24 25 29 32 35 36 37 39 41 43 43 41 40 39 38 36 34 35 38 38 35 35 34 35 35 35 34 33 32 31 30 29 29 28 27 26 26 27 28 28 29 28 27 26 26 26 26 26 25 25 24
38 42 50 54 54 56 60 63 62 61 63 64 65 66 67 67 65 62 57 53 51 50 48 46 46 47 46 43 41 39 37 35 35 35 32 27 24 23 25 28 31 33 35 38 40 42 43 42 41 41 40 38 36 38 40 38 36 35 34 34 34 34 33 33 32 32 31 30 28 27 26 25 26 26 26 27 26 26 25 25 25 25 25 24 24 23 23
38 41 47 51 52 52 54 59 62 61 61 63 64 65 68 67 65 62 58 54 53 51 48 47 48 50 49 45 42 41 40 39 40 39 35 31 27 25 24 25 26 28 32 35 37 38 40 42 43 42 40 39 39 40 40 39 37 35 33 33 33 33 33 33 32 31 30 29 27 26 25 25 25 25 25 24 24 23 23 23 23 23 23 22 22 23 23
37 39 45 49 50 49 50 56 62 61 60 61 63 65 68 66 64 62 59 55 54 52 49 48 50 52 50 47 44 43 43 44 44 41 37 34 30 28 25 23 22 24 27 30 32 35 38 40 41 41 40 40 40 41 41 40 38 35 33 32 32 32 32 31 30 29 28 27 26 25 25 24 24 24 23 23 22 22 22 22 22 21 21 21 21 22 23
37 39 44 47 49 49 48 53 59 62 61 61 63 65 66 65 63 61 59 56 54 53 51 50 52 53 52 49 47 46 47 48 46 44 40 37 34 32 29 24 22 24 26 29 31 32 35 37 39 39 40 40 40 41 41 39 37 35 34 33 32 31 29 29 28 27 27 26 26 25 25 24 23 23 22 22 22 21 21 20 20 20 20 20 20 20 21
37 40 44 46 47 48 48 51 57 61 61 61 63 64 64 64 62 58 57 58 56 54 53 53 53 55 54 50 48 48 50 50 48 46 43 39 36 35 33 27 24 25 26 29 30 31 33 35 37 40 40 40 41 41 40 38 37 36 35 32 31 29 28 28 28 27 27 27 27 26 25 24 24 24 23 23 22 21 21 20 20 19 19 19 19 19 19
38 41 44 45 45 46 47 50 55 60 60 59 61 62 62 63 61 56 55 57 57 55 54 54 55 56 56 52 50 51 52 52 50 47 45 43 40 38 35 30 25 24 25 29 31 32 33 35 36 38 39 40 41 41 40 39 38 37 35 32 31 31 31 31 30 29 29 29 28 28 27 26 26 25 25 25 24 23 23 22 22 21 21 20 20 19 19
38 41 43 44 44 45 47 50 53 58 60 57 57 59 61 62 60 55 52 55 58 56 54 55 56 57 56 54 53 53 54 54 52 49 47 46 44 40 36 31 26 23 25 30 33 34 34 35 35 36 38 40 42 42 41 40 38 37 35 34 34 34 34 33 32 31 32 31 30 30 30 29 28 28 28 28 27 27 26 25 25 25 24 24 23 22 22
37 40 41 42 44 44 47 51 53 55 58 58 56 56 59 60 59 56 52 53 57 57 55 55 57 58 57 56 56 55 55 55 54 51 49 48 46 42 37 31 27 24 27 32 35 36 36 35 33 34 37 40 42 43 42 41 39 38 37 38 39 39 38 36 35 35 34 33 33 33 33 32 32 32 31 30 30 30 29 29 29 29 28 27 27 26 26
35 40 40 41 44 45 46 50 53 54 55 57 57 57 58 58 56 55 53 53 55 58 57 56 58 59 59 59 58 57 56 56 55 53 51 49 46 42 38 32 28 26 28 34 37 37 37 36 33 33 36 39 41 42 43 42 41 40 40 41 43 42 40 39 39 38 38 37 37 37 36 35 35 35 35 34 33 33 32 31 32 32 31 31 30 29 29
31 36 39 40 43 46 46 48 52 54 54 54 55 57 58 56 53 53 54 54 54 57 57 57 58 60 60 60 61 59 57 57 56 55 52 50 47 43 38 34 30 28 30 35 39 39 38 36 34 33 35 37 39 41 42 42 42 41 41 43 44 43 42 43 43 42 42 42 41 41 40 38 38 39 40 39 38 37 35 34 34 34 34 33 32 31 31
30 34 38 40 43 46 48 49 51 54 55 54 52 54 57 56 51 50 53 54 55 57 58 58 59 60 61 62 62 61 60 58 57 56 54 51 47 44 40 35 32 31 32 36 40 41 40 38 37 35 35 36 38 39 40 41 41 41 42 43 42 42 43 44 45 46 46 46 46 46 44 42 42 44 44 43 42 41 39 37 37 36 36 35 35 34 33
32 36 39 42 43 45 48 51 52 52 55 56 53 51 54 54 50 49 51 54 55 58 59 59 59 60 62 63 63 62 62 61 59 57 56 52 48 45 42 38 35 33 34 37 40 43 42 41 39 37 37 37 38 39 40 40 41 41 42 42 40 39 40 40 42 44 45 45 46 46 46 46 47 48 48 46 45 44 42 39 38 38 38 38 38 37 36
31 36 39 42 45 46 48 51 52 52 54 57 55 54 54 53 50 50 52 54 57 59 60 59 60 61 61 63 64 63 62 62 62 59 57 53 50 47 44 41 38 36 36 38 41 42 43 43 42 40 38 38 38 39 40 40 41 42 42 42 42 41 41 41 42 42 43 43 43 44 45 45 46 47 46 44 44 44 43 41 40 40 40 40 40 40 40
28 33 36 40 45 48 48 50 52 52 53 55 57 59 57 53 51 53 54 53 54 58 60 60 60 61 62 62 63 63 63 62 62 61 58 54 51 49 46 44 41 39 39 41 42 43 43 44 44 43 41 39 38 38 39 40 42 43 44 45 45 45 45 45 45 44 44 44 45 45 45 45 45 45 44 42 41 42 42 42 42 42 43 43 43 43 43
27 30 33 38 44 48 49 50 51 52 52 53 57 62 61 55 49 49 52 55 55 57 60 63 63 62 62 63 63 63 62 62 62 61 59 56 53 50 49 47 45 43 41 42 43 44 44 44 44 43 42 40 38 38 39 41 42 44 45 46 47 47 47 47 47 47 47 47 47 47 47 47 47 46 46 44 43 43 44 44 45 45 46 46 46 47 47
25 27 30 35 41 46 49 50 50 51 52 53 57 62 63 60 52 42 41 49 56 58 59 62 64 63 62 62 63 63 61 61 62 61 59 57 56 53 52 50 48 46 44 44 44 45 45 45 45 44 43 41 40 40 40 40 41 42 43 44 45 45 46 47 47 47 47 48 48 49 49 49 48 48 47 47 47 47 47 47 48 48 49 49 49 50 50
22 27 29 33 38 43 48 50 51 52 53 55 58 61 62 62 60 49 39 41 51 60 62 60 60 63 63 61 62 64 62 59 60 61 60 58 57 56 54 53 51 49 47 46 45 45 45 46 47 47 45 44 42 41 40 39 39 39 39 39 39 39 41 42 42 42 43 45 46 46 47 47 48 48 48 48 48 48 49 49 49 50 50 50 51 51 51
16 24 29 32 35 40 46 50 51 52 54 56 57 58 58 58 59 57 50 43 43 52 61 63 60 61 62 62 62 65 64 60 59 60 61 60 59 58 56 55 53 51 49 47 46 44 44 46 48 48 47 46 44 42 41 40 39 37 36 34 34 35 36 36 37 37 38 38 40 41 41 42 44 45 46 46 47 48 48 49 49 49 49 49 49 48 48
12 19 26 30 33 35 40 46 49 52 55 58 58 57 56 55 54 55 55 50 42 40 49 60 63 62 62 64 65 65 65 62 59 60 62 62 60 59 58 57 55 53 50 48 47 46 45 45 47 48 48 48 46 43 42 40 39 36 34 33 33 33 34 35 36 36 35 36 36 36 37 37 38 39 40 41 42 43 43 44 44 45 45 44 43 43 42
11 14 19 25 30 33 35 39 43 47 51 56 58 57 56 56 56 54 53 53 49 42 40 49 60 64 65 65 65 64 65 65 63 61 63 64 62 60 59 59 58 56 53 50 48 47 46 46 46 48 48 47 45 43 42 41 39 37 34 33 32 32 33 35 36 36 36 36 36 36 36 36 36 36 36 37 37 38 38 38 39 39 39 39 39 39 39
13 12 13 17 23 28 31 34 38 41 45 51 55 56 55 56 58 58 55 53 52 47 40 39 47 57 65 68 67 64 63 66 68 67 65 64 63 62 62 61 61 59 57 55 52 51 49 48 47 48 48 47 45 44 43 42 40 39 36 34 33 33 33 33 34 35 35 35 35 36 37 37 37 36 36 36 36 37 37 37 37 38 39 38 38 38 38
16 14 14 14 16 20 25 28 31 34 39 44 49 52 53 54 56 58 58 56 55 53 49 43 39 42 51 62 68 67 64 65 71 73 70 67 65 64 64 64 64 62 60 58 56 55 53 52 51 50 49 48 47 47 46 44 43 41 38 36 35 35 34 33 33 33 33 33 34 35 36 37 37 37 37 37 37 37 37 38 39 39 39 38 38 39 39
19 18 17 16 15 16 19 22 24 26 30 36 42 46 48 50 52 54 57 58 57 56 55 53 48 42 41 46 54 60 62 64 69 73 72 70 69 67 66 66 65 63 62 60 59 58 57 56 55 54 52 51 50 50 49 47 45 43 41 39 37 37 37 35 34 33 32 31 31 32 33 35 36 38 38 38 38 38 38 39 41 41 38 37 38 40 40
19 21 21 20 19 19 19 19 21 22 22 26 32 37 40 42 45 49 52 54 54 55 54 54 54 53 49 45 43 44 48 54 60 66 71 73 72 70 69 68 67 66 65 63 62 62 61 60 58 57 56 55 54 53 52 50 48 46 44 42 40 40 39 38 37 36 34 32 31 30 31 32 34 36 38 38 39 39 39 40 42 42 39 36 35 37 39
16 20 22 23 23 23 22 22 22 22 22 22 25 28 31 32 35 40 44 45 46 47 48 50 52 54 54 54 51 46 43 44 47 53 62 70 73 73 72 70 68 68 68 67 66 65 64 62 61 60 59 58 57 56 55 53 51 49 47 46 45 43 41 40 40 39 38 36 33 31 30 30 31 34 37 39 40 40 41 42 43 45 43 37 33 33 35
11 15 20 23 25 26 26 26 26 25 25 24 24 24 25 26 27 31 34 36 37 38 39 42 45 48 50 52 54 53 51 49 46 46 49 55 62 69 74 75 73 71 70 69 69 68 67 65 63 62 61 61 60 59 57 55 53 51 50 49 48 46 45 43 42 42 42 40 38 35 33 31 31 32 35 39 40 42 43 44 45 46 45 41 38 37 38
5 9 14 18 22 25 27 28 29 29 28 28 27 26 26 25 25 26 28 30 31 32 33 34 36 39 42 44 47 49 50 51 52 50 48 47 49 55 62 66 70 74 73 72 72 72 70 69 67 66 65 64 63 61 60 58 56 54 53 52 51 50 48 46 45 45 44 44 43 41 39 37 35 34 35 38 40 42 44 45 46 47 46 44 42 41 42
2 5 9 12 15 19 23 25 27 28 29 29 29 30 29 28 27 28 29 29 30 30 30 30 31 33 34 36 39 42 44 46 48 50 50 49 49 50 49 49 54 61 65 66 68 71 72 71 70 69 68 67 66 64 63 62 59 57 57 56 55 53 51 50 48 48 47 46 46 45 44 42 40 38 38 39 41 42 44 45 46 47 47 46 45 43 43
5 3 5 8 9 12 15 18 21 23 25 26 28 29 31 31 30 30 32 32 32 31 31 31 32 33 34 34 35 37 40 41 43 45 47 48 50 52 52 51 50 50 50 51 55 60 65 71 73 72 70 69 68 66 65 64 64 63 62 60 58 57 56 54 52 51 50 49 48 47 47 46 44 42 41 41 42 43 44 45 45 45 46 47 48 48 48
8 6 5 6 7 8 9 12 15 18 20 23 24 26 29 31 32 33 33 33 33 33 34 34 35 35 36 37 37 38 40 41 42 44 46 47 48 50 52 54 54 52 50 49 49 50 53 61 67 69 68 68 68 68 68 67 66 66 65 63 61 59 59 57 56 54 52 51 50 49 49 48 45 43 43 43 42 42 42 43 43 43 44 45 47 49 51
11 9 7 6 7 7 8 9 11 13 16 19 20 21 24 27 30 32 34 34 34 33 33 33 34 35 36 37 39 40 42 43 44 45 47 49 50 51 52 52 52 52 51 51 51 51 50 51 53 55 55 54 56 61 66 68 66 65 64 64 63 62 61 59 57 56 55 53 51 50 50 48 46 44 44 43 43 41 40 40 40 41 43 45 47 49 51
14 12 10 9 8 8 8 9 10 10 12 14 16 17 18 21 24 27 29 30 31 31 31 31 31 32 33 35 38 40 41 43 44 46 47 49 51 52 53 53 53 53 52 52 52 52 53 52 51 50 49 47 46 48 52 56 56 56 56 58 61 63 63 61 58 56 55 54 52 50 49 48 46 44 44 44 42 40 39 39 40 41 44 46 48 50 52
17 15 13 12 11 10 9 9 10 10 10 11 13 14 15 17 19 21 23 24 25 25 26 28 29 30 30 32 35 38 40 42 43 44 46 48 50 51 52 53 54 55 55 54 54 54 55 55 54 54 53 52 51 49 46 45 46 46 45 45 48 52 54 53 52 51 51 51 51 50 49 47 45 45 45 46 44 42 41 41 43 44 46 48 51 53 54
19 18 16 14 14 13 12 11 11 11 11 12 12 13 14 15 17 18 19 20 21 21 21 22 24 26 27 28 30 33 37 39 41 42 43 45 46 48 49 50 51 53 54 55 54 55 57 58 58 57 56 56 56 55 52 49 47 45 43 41 40 39 39 39 40 43 45 47 48 47 47 46 45 46 47 48 47 44 43 44 45 46 47 49 50 51 53
20 20 19 17 15 15 15 15 14 13 13 13 13 14 13 14 15 17 17 18 19 19 19 19 21 22 24 25 27 30 33 35 37 39 40 41 42 43 44 45 46 49 51 53 54 54 55 56 57 58 59 58 58 58 58 56 54 52 49 46 43 41 39 38 37 38 41 45 46 46 46 46 46 47 49 50 50 48 47 46 47 47 47 46 45 45 49
21 21 21 20 18 17 16 16 17 17 15 14 15 16 16 15 15 16 17 18 18 18 18 19 19 21 22 23 24 26 29 31 33 35 36 37 38 39 40 40 41 43 46 49 52 53 53 54 55 56 58 59 60 61 61 61 60 58 56 54 52 49 47 45 43 41 41 42 44 46 46 46 47 49 50 51 52 51 51 51 50 49 49 47 45 45 48
21 21 22 21 21 19 18 17 18 19 19 17 16 17 18 18 18 17 17 18 19 19 19 19 19 19 20 21 22 22 24 26 28 30 32 33 34 35 36 37 37 38 40 44 48 50 50 51 53 54 55 57 59 61 61 62 62 61 61 59 58 57 55 52 51 49 46 45 45 46 47 48 50 51 52 53 54 55 55 55 54 53 52 51 50 49 50
19 20 21 22 22 21 20 19 19 20 21 20 18 17 18 20 20 20 19 18 19 20 21 22 21 21 20 20 20 20 20 21 22 25 27 28 30 31 33 33 33 34 35 38 41 44 46 48 50 52 53 55 57 59 60 60 60 60 60 60 59 59 58 56 55 54 52 50 49 49 50 51 53 55 56 57 57 57 58 57 57 55 55 54 54 54 55
16 17 18 20 21 21 21 21 20 21 22 22 20 18 18 19 21 22 22 21 21 21 22 23 23 23 23 22 21 20 19 18 18 19 20 23 25 28 29 30 31 31 31 32 33 36 39 42 45 47 50 53 55 57 58 58 57 57 57 58 58 57 56 55 55 55 54 53 53 53 53 54 55 57 58 59 59 59 59 59 59 58 57 57 57 57 59
16 16 16 17 18 19 21 21 22 22 23 24 23 21 20 19 20 22 23 23 23 23 23 24 24 24 24 24 24 23 22 21 20 19 19 20 22 24 27 29 29 28 28 28 29 30 33 38 42 44 46 50 53 55 56 56 56 55 56 56 57 56 56 55 54 54 54 54 55 55 55 56 57 58 59 59 60 60 60 60 60 60 60 59 59 59 60
18 18 17 17 17 17 18 19 20 22 23 25 25 24 23 21 20 21 22 23 24 25 25 25 25 25 24 24 24 24 24 25 25 24 24 23 22 23 25 28 28 27 26 26 27 29 32 38 43 43 41 42 46 50 52 54 55 55 56 56 57 56 56 56 56 56 56 56 57 57 58 58 59 60 60 61 61 61 61 61 61 61 61 61 61 61 62
21 20 19 19 19 18 17 17 18 20 22 24 25 25 25 24 22 21 21 22 23 24 25 26 26 25 24 23 22 22 22 22 22 23 22 21 20 20 22 26 29 30 28 28 29 30 35 41 44 40 33 31 35 41 46 50 53 55 55 57 57 57 58 58 58 58 58 59 59 59 60 61 61 62 62 62 62 62 62 62 63 63 64 64 64 64 65
Wind_Direction
213 209 209 212 214 212 211 211 212 213 214 214 216 217 219 221 222 222 223 221 216 214 211 210 217 219 215 212 209 204 203 204 206 206 205 203 202 203 204 205 205 206 207 210 212 211 212 215 221 226 226 225 225 222 220 218 216 214 214 214 213 213 212 211 212 213 213 214 215 216 216 215 214 213 214 215 216 216 217 217 218 219 221 223 225 225 225
214 210 209 211 213 212 210 211 212 213 214 214 215 216 218 220 223 223 222 218 215 215 210 207 214 220 219 215 210 205 203 204 206 208 207 205 203 203 204 204 203 201 202 207 210 211 212 214 218 223 225 224 225 224 223 222 220 217 215 215 214 213 212 210 211 212 211 212 214 215 217 217 216 216 216 216 217 218 218 219 220 221 222 223 226 228 228
215 211 210 210 212 212 210 210 211 213 214 214 215 216 217 220 222 222 220 215 213 213 210 206 210 216 220 217 211 206 205 204 206 208 208 206 204 204 205 205 206 203 202 205 209 210 212 213 215 220 223 223 223 222 222 223 223 220 217 216 215 214 211 210 211 212 212 212 213 214 216 217 218 218 217 217 218 219 220 221 222 223 223 223 225 226 228
216 212 212 211 211 212 211 209 210 212 213 213 214 215 217 219 221 221 218 213 209 210 209 205 207 213 218 219 214 209 206 205 207 209 209 208 207 207 207 207 209 208 205 205 208 210 210 210 212 217 221 222 222 221 222 224 224 222 219 216 215 214 212 211 212 212 213 214 214 214 215 216 218 218 218 217 219 220 221 222 223 224 224 224 225 225 227
218 214 213 211 211 212 211 209 209 212 213 212 213 214 216 218 220 219 216 210 206 206 206 205 206 211 217 218 216 212 207 205 207 210 211 211 212 212 211 212 213 212 211 209 207 209 209 207 210 217 221 223 223 222 223 225 225 223 219 216 215 214 213 213 212 213 214 215 215 216 216 217 218 218 218 218 219 220 221 222 224 224 225 226 226 227 229
220 216 214 212 211 212 210 207 208 212 212 212 213 214 216 217 218 218 214 208 203 202 202 204 207 210 214 217 216 212 206 204 206 210 212 214 216 216 216 216 215 215 216 213 208 207 206 204 208 215 219 222 223 222 222 224 225 224 219 215 214 214 214 213 213 213 215 215 216 217 218 219 219 219 219 220 221 222 222 224 225 226 227 227 227 229 231
223 218 215 213 212 211 208 205 207 211 212 212 213 214 215 216 217 217 213 207 202 199 199 202 206 208 212 215 214 209 205 204 205 208 210 212 215 216 215 216 215 216 218 216 211 206 202 202 208 214 216 219 221 221 221 223 225 224 219 214 213 214 214 214 214 214 215 216 217 218 219 220 220 220 220 221 222 224 224 226 227 228 228 228 228 229 232
223 220 217 214 210 209 208 206 206 210 211 211 212 214 215 215 216 215 212 206 201 198 196 199 204 207 210 211 207 203 204 205 202 200 203 209 213 214 215 215 216 218 218 218 214 207 201 203 210 213 215 217 220 221 221 222 224 223 218 214 213 214 214 214 215 215 215 216 218 218 220 220 220 220 221 222 223 224 225 226 228 229 229 228 229 230 231
223 222 218 213 209 208 208 206 205 208 210 211 212 214 215 215 214 214 211 205 200 197 195 197 202 204 205 204 200 200 203 202 197 198 204 211 215 217 218 216 215 215 216 216 214 207 202 205 212 214 215 217 219 220 220 221 224 223 219 214 212 214 215 215 216 217 217 218 218 219 219 220 220 221 221 223 225 226 227 228 228 229 229 229 230 231 232
222 222 219 214 210 209 208 205 204 207 210 211 212 214 216 215 214 213 209 204 200 198 195 196 199 200 200 199 198 199 201 199 197 199 202 206 214 220 220 218 215 214 214 213 211 206 204 206 212 215 217 217 219 219 219 221 223 223 219 215 213 214 215 216 217 218 219 220 221 221 220 219 219 220 221 223 225 227 227 228 228 228 229 230 232 234 236
218 220 218 215 211 209 207 205 204 206 209 211 212 214 216 215 213 212 209 204 201 200 197 196 198 199 198 198 198 199 199 197 196 196 196 199 209 217 220 218 216 213 211 211 210 207 206 207 212 216 217 216 217 217 217 219 221 221 219 216 214 214 215 216 218 219 221 222 223 223 221 219 218 219 220 221 223 223 224 225 226 228 230 232 235 238 240
216 217 217 215 212 208 206 205 204 205 209 211 212 215 216 215 213 211 208 204 202 200 198 196 197 198 198 198 198 199 198 196 195 195 194 197 204 211 214 213 212 210 209 208 209 210 209 210 213 217 217 215 214 214 215 217 219 219 217 215 213 213 214 216 218 220 221 223 223 221 219 217 216 216 217 218 219 220 221 224 226 229 232 235 237 239 240
212 213 215 215 212 207 205 205 204 205 208 211 212 214 214 214 214 212 207 204 203 201 198 196 196 198 198 197 197 198 197 195 195 195 196 198 203 209 211 208 207 208 208 207 207 209 211 212 215 217 215 212 211 213 215 217 217 217 215 212 212 212 214 215 217 218 219 218 216 214 212 211 211 212 213 214 216 217 219 222 225 228 230 232 235 237 239
207 209 212 214 212 206 203 204 204 205 208 211 212 213 214 215 215 212 208 204 203 203 199 196 197 198 198 197 196 196 196 196 196 197 198 200 203 208 210 207 205 205 207 208 207 208 210 212 214 215 213 210 210 213 216 217 217 217 215 213 212 211 211 212 214 212 210 208 206 205 204 204 205 206 208 211 213 215 218 221 223 226 229 232 235 238 242
203 206 210 213 211 205 202 203 203 205 209 212 212 212 215 215 215 213 209 205 204 203 200 197 197 199 199 197 196 195 196 197 198 199 201 203 203 205 207 207 203 201 204 208 210 211 212 212 214 214 211 208 210 213 217 217 217 218 217 214 212 210 209 210 209 206 203 202 201 201 202 203 204 206 208 211 214 216 219 222 225 228 232 236 240 244 248
200 203 208 211 208 203 200 201 203 204 208 212 213 213 214 215 214 213 210 206 204 204 202 199 199 200 200 197 195 195 197 198 200 201 203 205 205 203 204 205 201 199 201 206 210 213 215 216 217 215 211 209 210 214 216 218 218 219 218 214 211 211 211 210 209 206 203 203 202 203 205 207 208 211 213 216 217 219 222 226 229 231 235 240 244 248 252
198 201 206 209 205 200 199 200 202 204 207 210 213 214 215 215 213 212 210 207 205 205 203 200 201 202 200 197 196 196 197 199 202 203 205 208 207 204 202 202 199 198 201 206 209 213 217 219 219 216 211 209 211 214 216 217 218 219 217 214 212 213 213 212 210 209 209 208 208 209 211 212 213 216 218 220 222 224 226 228 231 233 236 239 243 246 249
197 201 207 209 203 198 199 200 200 203 207 211 212 213 215 215 213 212 211 208 206 206 204 201 202 203 201 198 198 198 198 200 204 206 207 210 210 206 203 200 198 199 203 207 209 213 217 220 219 215 211 210 211 214 215 217 218 219 217 215 215 214 213 213 213 213 214 215 216 216 217 217 218 219 221 224 226 227 229 230 232 234 237 239 241 244 247
197 203 208 208 202 198 198 200 200 201 205 211 213 213 214 214 213 213 212 210 208 207 204 202 202 204 203 200 200 201 201 202 206 209 209 211 211 208 205 202 200 201 204 207 210 213 216 219 218 215 212 212 213 214 215 216 218 219 220 220 219 217 214 214 216 217 218 219 220 221 223 222 220 221 222 224 225 227 229 233 235 236 238 239 241 243 246
201 207 209 206 201 199 198 199 201 202 204 208 213 214 213 212 212 213 213 212 211 208 205 203 203 204 204 202 202 203 203 204 208 211 212 213 213 210 208 205 203 203 203 205 209 212 215 217 218 215 213 212 213 214 216 217 219 221 223 225 226 224 220 218 219 220 220 221 221 224 227 227 225 225 225 224 224 225 227 231 235 237 240 242 243 244 246
205 209 207 203 199 200 201 200 200 203 204 207 211 213 212 210 211 213 213 213 213 211 208 205 204 205 205 204 204 205 205 206 209 213 215 216 215 214 212 208 204 203 203 204 207 210 213 217 218 216 212 211 212 213 215 217 219 222 226 230 232 232 230 227 224 224 224 225 224 224 226 228 229 230 229 227 226 227 227 230 234 238 241 243 246 248 249
206 207 205 201 199 200 203 202 202 203 205 206 209 211 209 208 212 214 213 212 212 212 210 208 206 206 206 206 206 207 207 207 209 213 216 217 217 216 215 212 207 203 203 204 206 209 212 215 219 219 215 212 212 213 215 217 220 223 228 233 236 237 238 237 234 232 233 233 231 229 229 230 232 234 233 231 231 230 231 233 236 240 243 245 247 249 251
206 210 206 202 200 202 204 204 204 205 205 206 208 208 206 209 215 218 215 212 211 211 211 210 209 208 208 208 208 208 208 208 210 213 216 218 218 218 218 216 211 205 203 204 206 208 211 214 218 221 220 217 216 217 218 220 222 225 229 233 236 238 240 241 241 240 240 241 240 239 239 239 240 242 242 240 237 235 235 237 241 244 247 249 250 252 253
204 212 210 204 202 204 206 206 206 207 207 207 208 207 207 209 213 216 216 214 211 210 212 212 210 210 210 210 209 210 210 210 211 213 216 218 218 219 220 218 213 207 204 205 207 209 211 214 217 220 222 221 219 219 220 222 224 227 230 233 236 239 241 242 244 244 245 245 245 246 247 248 249 251 252 251 248 243 242 243 245 248 251 252 254 255 256
202 213 213 208 205 206 208 208 207 208 209 208 208 208 209 209 209 210 213 215 213 211 212 213 212 211 211 211 211 211 211 211 212 214 216 217 217 218 219 218 214 209 206 207 208 210 212 213 214 216 217 217 216 218 220 223 225 228 230 233 235 238 240 242 243 244 245 246 247 248 249 250 252 253 254 255 254 252 250 249 250 251 253 255 257 259 261
201 211 215 213 209 207 209 210 209 209 209 209 210 211 212 213 212 208 208 214 216 214 213 213 213 213 213 212 213 213 212 211 212 214 214 215 215 216 217 217 214 209 208 209 210 211 213 214 214 214 214 216 218 219 221 223 224 226 229 231 234 236 239 241 243 244 245 246 247 248 249 250 251 252 253 254 254 254 253 253 253 255 256 258 260 262 264
204 211 215 216 212 209 210 211 211 210 210 211 213 215 217 219 220 218 215 219 219 216 214 213 213 213 215 214 214 215 214 212 212 213 214 214 214 213 214 214 213 210 208 209 211 213 215 215 215 215 216 217 218 219 219 220 222 224 227 230 233 236 238 239 241 243 245 246 247 248 249 250 251 252 252 253 253 254 254 255 256 257 258 260 261 263 264
205 213 217 218 216 213 212 213 213 213 212 212 215 219 221 224 226 226 227 228 223 217 215 214 212 212 216 216 215 215 215 213 211 212 214 214 214 213 212 211 211 210 209 209 211 214 216 216 215 214 214 214 214 216 218 220 223 226 229 232 235 237 238 238 238 240 242 245 247 248 249 249 250 251 251 252 252 253 254 255 256 257 258 259 260 261 261
198 214 220 221 221 220 217 216 218 218 216 215 217 221 223 225 228 230 231 231 229 225 222 218 214 211 214 217 217 216 215 214 213 212 213 214 215 213 212 211 210 209 209 210 212 214 216 217 216 214 213 213 214 216 219 222 226 229 232 236 239 240 239 238 238 239 240 242 245 246 247 247 248 249 250 251 251 252 253 254 254 255 256 256 256 256 256
189 206 219 224 226 225 222 222 222 223 220 219 220 224 226 226 228 231 232 233 233 234 231 225 219 214 213 217 219 217 215 215 215 214 213 214 215 214 213 212 211 210 209 210 212 214 216 217 216 215 215 215 217 219 222 225 228 231 234 237 239 239 238 238 238 239 240 242 243 244 246 247 248 248 249 249 250 250 250 251 251 251 252 252 252 252 252
189 193 207 220 227 228 228 227 228 227 225 223 224 227 229 230 230 232 235 237 237 235 233 230 224 217 212 214 218 219 217 215 215 215 214 213 213 213 213 213 212 211 210 210 211 214 216 217 217 217 218 219 221 223 225 227 229 231 233 236 237 236 235 235 237 238 240 241 243 244 245 247 248 249 249 249 250 249 249 249 249 249 249 250 250 251 252
197 197 200 208 219 227 229 230 231 232 231 229 228 229 231 233 234 236 237 241 242 240 237 236 233 224 215 213 216 220 220 215 210 211 213 214 212 211 212 213 214 213 212 212 213 214 215 217 218 218 220 222 224 225 227 229 230 232 234 235 235 234 233 233 234 235 237 239 242 244 246 247 248 249 250 250 250 250 250 250 251 251 251 253 254 254 254
204 204 205 206 209 217 224 227 229 232 234 233 232 233 233 235 237 239 241 243 246 246 244 242 241 237 229 220 216 218 219 216 210 207 208 212 213 213 212 213 215 215 215 214 214 215 216 217 218 219 221 223 225 227 228 229 231 233 235 237 237 236 235 234 234 234 236 239 241 242 244 247 248 248 249 250 250 251 251 252 253 253 253 254 255 256 256
215 210 210 210 210 212 217 221 222 225 230 232 233 235 237 237 238 240 243 245 248 249 249 249 247 245 243 237 229 221 218 216 213 209 207 209 211 213 214 214 214 216 216 216 215 216 218 218 219 220 221 223 225 226 228 230 232 235 237 240 241 241 240 239 238 237 238 241 243 244 245 247 248 248 249 250 250 251 251 252 253 255 255 254 254 258 260
229 221 216 215 216 217 218 218 219 219 222 225 229 233 236 237 238 240 242 246 249 250 251 252 252 252 250 248 246 241 232 223 217 214 212 210 208 208 212 215 215 215 216 217 217 217 218 219 220 222 223 224 225 226 227 229 231 234 238 241 243 244 244 243 243 242 242 244 246 247 248 250 251 251 249 249 249 250 251 252 253 255 258 259 260 261 262
232 228 223 220 220 221 223 224 224 221 220 221 224 228 232 236 238 240 242 246 249 252 253 253 253 254 254 254 253 252 249 243 237 230 224 218 211 207 209 212 215 217 217 217 218 219 219 219 220 222 224 225 226 227 228 229 231 234 238 241 243 245 246 246 245 245 246 247 249 250 251 254 258 259 255 251 249 249 251 252 253 255 259 262 263 262 262
221 224 226 225 223 222 224 227 228 227 226 224 224 226 230 235 237 239 242 246 248 251 254 256 256 255 255 255 256 256 255 254 252 248 242 234 225 216 211 210 213 215 217 217 218 218 219 219 219 221 224 226 226 227 228 229 230 233 236 240 242 244 246 247 248 248 248 249 251 253 254 256 261 265 265 260 254 251 251 253 254 255 258 260 262 262 261
272 216 219 224 226 225 225 226 227 228 231 231 230 228 229 234 238 241 243 246 247 249 252 257 259 260 260 259 260 260 259 258 258 256 253 249 242 233 225 219 216 215 216 217 218 219 219 219 219 220 222 225 227 227 228 229 230 231 234 237 240 243 245 246 248 249 250 250 252 254 256 257 260 266 271 268 260 255 254 254 255 256 257 259 260 260 260
330 284 231 225 227 230 230 229 228 228 230 232 232 230 230 234 239 243 245 244 244 245 250 254 258 261 263 264 266 267 266 265 264 262 260 258 254 248 242 239 235 230 225 223 222 222 221 220 220 221 222 224 226 228 230 230 232 232 233 234 237 241 243 244 246 248 249 250 252 255 257 258 260 266 272 270 262 258 257 257 258 260 260 260 261 263 264
327 320 291 258 245 241 239 238 236 234 232 231 232 232 233 236 239 241 242 243 243 244 248 251 254 256 260 263 265 267 268 269 269 268 266 265 264 261 256 253 251 248 244 239 236 232 227 223 221 221 222 223 224 227 229 230 232 233 233 234 236 239 241 242 244 246 248 249 252 255 258 258 260 266 271 267 260 257 257 258 259 261 263 263 264 265 266
317 316 309 291 272 260 251 245 244 243 239 236 234 233 232 235 237 238 239 241 243 243 245 248 250 252 255 258 261 264 265 266 268 270 270 270 269 268 266 264 262 261 259 255 251 247 240 232 226 223 221 221 222 224 227 229 230 232 233 235 237 239 241 242 242 243 245 248 251 254 256 257 260 265 268 263 257 256 258 259 261 264 266 267 268 268 268
308 310 309 304 293 279 265 255 252 251 249 245 243 240 236 234 235 236 238 240 243 245 247 249 251 253 254 256 259 261 263 264 265 266 268 269 270 270 269 268 267 267 267 266 263 258 252 246 240 236 234 231 229 228 227 228 229 229 231 233 235 237 239 240 240 241 244 247 250 252 254 255 258 263 263 258 253 254 256 258 260 264 266 267 269 270 270
304 303 304 304 301 295 283 269 260 257 258 256 254 253 252 248 244 242 242 242 245 249 253 256 258 258 258 258 258 258 259 259 260 261 262 264 266 267 267 268 268 268 268 268 268 266 261 257 254 252 250 247 245 243 240 236 233 232 233 235 235 236 237 238 239 241 244 246 247 249 251 253 256 259 258 253 249 250 254 259 263 267 268 269 269 269 270
302 299 297 298 299 298 296 288 276 265 261 260 259 257 259 260 258 255 253 251 251 254 259 264 266 266 263 258 254 252 252 252 252 253 254 256 259 261 262 264 265 267 268 267 268 268 266 264 262 262 261 260 257 255 253 249 246 244 244 244 243 243 244 246 247 247 247 247 246 247 250 252 254 256 255 250 246 248 255 262 267 270 273 274 274 274 276
298 296 293 292 293 295 297 297 293 285 276 271 268 264 262 263 265 265 264 262 261 262 265 268 270 269 265 258 250 246 245 247 248 248 249 250 252 255 257 259 261 263 265 266 266 267 268 267 267 266 267 267 266 264 262 260 258 257 255 254 253 253 254 256 257 255 252 249 247 247 249 251 253 253 250 246 244 247 255 262 267 271 275 277 278 277 276
293 294 293 291 290 291 293 294 294 292 289 284 279 274 269 266 266 266 266 265 262 261 262 265 267 266 263 257 251 245 242 243 245 247 249 250 252 253 255 256 257 259 261 264 265 266 267 267 267 267 268 269 269 269 268 267 266 266 265 264 263 262 261 261 260 259 257 253 248 246 248 251 251 249 246 245 245 249 256 264 268 271 274 276 276 275 272
288 288 289 288 287 287 288 289 289 290 289 288 286 283 278 272 267 265 264 263 260 256 254 256 258 260 261 260 257 252 248 246 246 248 249 251 252 254 255 256 256 256 257 260 262 264 264 265 265 265 266 267 268 269 269 269 269 269 269 269 269 268 267 266 265 263 262 259 254 249 249 250 250 248 247 248 250 254 259 264 268 270 272 273 273 273 273
288 286 285 284 284 283 283 282 283 285 285 285 285 284 282 278 273 269 265 261 257 253 251 250 250 251 253 255 257 258 257 254 252 252 252 252 253 254 255 255 255 255 254 255 258 260 260 260 261 261 262 262 263 265 266 266 267 267 267 268 268 268 268 268 267 266 265 263 260 256 253 252 252 253 253 255 257 260 262 265 267 269 271 272 273 273 273
290 288 285 282 281 280 278 277 276 277 278 280 279 278 279 279 278 275 271 266 260 253 249 248 249 251 250 249 249 253 258 260 258 255 255 256 255 254 252 251 251 251 249 249 250 252 255 256 256 254 254 255 258 260 260 260 259 259 259 260 261 262 262 262 262 263 262 261 259 257 256 255 255 256 257 259 260 262 264 265 267 269 271 272 273 273 273
285 285 284 283 281 278 275 274 272 271 271 273 274 273 272 273 275 276 274 272 268 262 254 248 247 249 251 250 250 251 255 258 259 259 261 264 262 256 250 246 243 241 240 238 235 236 243 250 253 251 249 250 251 252 252 252 252 251 251 252 253 253 254 254 255 255 256 256 255 255 255 254 255 256 257 258 260 262 263 265 267 269 270 271 272 272 272
280 279 279 278 277 276 274 271 269 268 267 267 268 269 267 267 269 272 273 272 271 269 265 259 253 249 248 248 249 250 254 257 258 260 265 267 263 254 245 238 230 225 226 231 229 221 220 229 241 248 251 251 249 248 247 247 247 246 246 246 246 247 247 248 248 249 250 251 251 252 252 252 253 254 255 257 259 261 263 265 267 268 269 270 271 271 271
279 278 276 274 273 271 270 269 267 265 263 262 262 263 263 262 262 265 268 269 269 269 269 268 265 261 256 251 248 248 250 253 255 257 259 258 250 241 235 229 221 215 217 227 233 226 216 219 230 241 248 249 249 249 248 246 245 245 245 245 245 245 245 245 245 246 246 248 248 249 250 250 251 252 254 255 258 260 262 264 265 267 268 270 271 271 271
Height
5684 5690 5696 5701 5706 5712 5718 5723 5728 5732 5737 5741 5746 5751 5757 5763 5766 5768 5775 5787 5797 5801 5804 5808 5809 5810 5814 5816 5819 5822 5825 5828 5831 5834 5837 5840 5844 5846 5849 5851 5854 5858 5861 5864 5867 5870 5873 5875 5877 5879 5881 5883 5885 5885 5886 5887 5888 5889 5891 5893 5894 5896 5899 5901 5903 5905 5907 5909 5911 5913 5915 5917 5920 5922 5924 5926 5928 5929 5931 5933 5934 5935 5937 5938 5939 5941 5942
5678 5685 5690 5695 5699 5706 5712 5718 5723 5727 5732 5737 5742 5748 5754 5758 5759 5765 5776 5787 5793 5796 5801 5805 5805 5806 5808 5811 5815 5818 5820 5823 5826 5828 5832 5835 5839 5841 5844 5847 5850 5853 5857 5861 5864 5866 5869 5872 5874 5876 5878 5881 5883 5884 5885 5885 5886 5888 5889 5891 5893 5895 5897 5899 5900 5901 5903 5906 5908 5910 5913 5915 5918 5920 5922 5923 5925 5927 5929 5931 5932 5934 5935 5936 5938 5939 5940
5672 5679 5684 5689 5694 5700 5707 5713 5718 5722 5727 5733 5739 5745 5750 5752 5755 5763 5774 5782 5788 5793 5797 5799 5801 5802 5804 5807 5812 5815 5817 5819 5821 5824 5827 5831 5834 5837 5840 5843 5846 5849 5853 5857 5860 5862 5865 5868 5871 5873 5876 5878 5880 5881 5882 5883 5885 5886 5887 5889 5891 5893 5895 5896 5897 5899 5901 5903 5906 5908 5911 5913 5915 5917 5919 5921 5923 5925 5927 5929 5930 5932 5933 5935 5936 5937 5938
5665 5673 5678 5683 5689 5696 5701 5707 5713 5717 5722 5729 5735 5741 5745 5748 5752 5760 5769 5778 5785 5789 5791 5794 5796 5799 5801 5804 5808 5811 5814 5816 5818 5821 5824 5827 5830 5832 5835 5838 5842 5846 5849 5852 5856 5859 5862 5865 5868 5870 5873 5875 5877 5879 5880 5882 5882 5883 5885 5887 5889 5891 5892 5893 5895 5897 5899 5901 5904 5906 5908 5910 5912 5914 5916 5919 5921 5923 5925 5927 5928 5930 5932 5933 5934 5935 5937
5660 5668 5672 5678 5685 5690 5694 5702 5709 5714 5719 5726 5732 5736 5739 5742 5748 5756 5765 5774 5781 5784 5787 5790 5793 5795 5798 5800 5804 5808 5812 5814 5816 5819 5821 5824 5826 5830 5834 5838 5842 5845 5847 5849 5853 5856 5860 5863 5865 5868 5870 5873 5875 5877 5878 5879 5880 5881 5883 5885 5887 5888 5889 5891 5893 5895 5897 5899 5902 5904 5906 5908 5910 5912 5914 5917 5919 5921 5922 5924 5926 5928 5930 5931 5932 5933 5935
5656 5662 5667 5674 5678 5682 5689 5700 5707 5710 5715 5722 5727 5730 5733 5737 5744 5753 5763 5771 5777 5781 5784 5786 5789 5792 5795 5797 5801 5805 5809 5811 5814 5816 5819 5822 5825 5828 5832 5836 5838 5841 5843 5846 5850 5853 5857 5860 5863 5865 5867 5870 5872 5874 5875 5875 5877 5878 5880 5882 5883 5885 5887 5889 5891 5893 5895 5897 5899 5901 5903 5905 5907 5910 5913 5915 5916 5918 5920 5922 5924 5926 5927 5929 5930 5931 5932
5652 5657 5662 5666 5670 5676 5687 5697 5702 5705 5711 5717 5722 5725 5728 5734 5741 5749 5758 5766 5773 5777 5780 5784 5787 5790 5792 5795 5798 5802 5806 5808 5811 5815 5818 5820 5823 5825 5828 5831 5834 5836 5839 5842 5846 5849 5853 5856 5858 5861 5864 5866 5868 5870 5872 5873 5874 5876 5877 5879 5880 5882 5884 5887 5889 5891 5893 5895 5897 5899 5901 5903 5906 5908 5910 5912 5914 5916 5918 5919 5921 5923 5924 5926 5927 5928 5930
5647 5651 5655 5659 5666 5675 5683 5691 5696 5701 5706 5712 5717 5721 5724 5731 5738 5745 5754 5762 5769 5774 5777 5781 5784 5787 5790 5793 5796 5800 5803 5806 5810 5813 5816 5818 5820 5822 5824 5827 5830 5832 5835 5839 5842 5846 5849 5852 5854 5857 5860 5863 5865 5867 5869 5870 5872 5873 5875 5876 5878 5879 5882 5884 5887 5889 5891 5893 5895 5897 5899 5902 5904 5906 5908 5910 5912 5913 5915 5917 5918 5920 5922 5923 5924 5926 5927
5643 5647 5652 5658 5666 5672 5677 5685 5692 5697 5703 5709 5714 5718 5721 5727 5734 5741 5750 5759 5765 5770 5774 5778 5781 5784 5787 5790 5793 5797 5800 5804 5808 5811 5813 5815 5817 5819 5821 5823 5826 5828 5831 5834 5838 5841 5845 5848 5851 5854 5857 5860 5862 5864 5866 5867 5869 5871 5872 5874 5875 5877 5880 5883 5885 5887 5889 5891 5893 5895 5898 5900 5902 5904 5906 5907 5909 5911 5912 5914 5916 5917 5919 5920 5921 5923 5924
5639 5644 5649 5655 5661 5666 5673 5682 5690 5695 5700 5706 5711 5714 5717 5722 5729 5737 5747 5755 5761 5765 5769 5774 5778 5781 5784 5787 5791 5794 5798 5802 5806 5809 5811 5813 5815 5816 5818 5820 5823 5825 5828 5831 5834 5838 5841 5844 5847 5851 5853 5856 5859 5861 5863 5865 5867 5869 5870 5872 5874 5876 5878 5881 5883 5885 5887 5889 5891 5894 5896 5898 5900 5902 5903 5905 5906 5908 5910 5912 5913 5914 5916 5917 5919 5920 5922
5635 5641 5647 5652 5657 5663 5671 5680 5687 5693 5697 5702 5707 5710 5712 5718 5725 5734 5742 5750 5755 5760 5764 5769 5774 5777 5781 5785 5788 5792 5796 5799 5803 5805 5808 5811 5813 5815 5816 5817 5820 5822 5825 5828 5831 5834 5837 5840 5844 5847 5850 5853 5856 5858 5860 5862 5864 5866 5868 5870 5872 5874 5876 5878 5880 5883 5885 5887 5890 5892 5894 5896 5898 5899 5901 5902 5904 5906 5907 5909 5911 5912 5913 5915 5917 5918 5919
5632 5639 5645 5651 5656 5662 5670 5677 5683 5689 5693 5697 5702 5705 5708 5715 5722 5730 5738 5745 5750 5755 5760 5766 5770 5774 5777 5782 5786 5790 5793 5796 5799 5802 5805 5808 5811 5813 5814 5815 5817 5819 5822 5825 5828 5831 5835 5838 5840 5843 5846 5849 5852 5855 5857 5860 5862 5865 5867 5869 5870 5872 5874 5876 5878 5881 5883 5886 5888 5890 5892 5894 5896 5897 5899 5900 5902 5904 5906 5907 5908 5910 5912 5913 5914 5916 5917
5630 5637 5644 5649 5653 5660 5667 5674 5680 5685 5689 5693 5697 5701 5707 5713 5719 5726 5735 5742 5747 5751 5757 5762 5766 5770 5774 5779 5783 5787 5790 5793 5796 5799 5802 5805 5808 5811 5813 5814 5815 5817 5820 5823 5827 5830 5833 5835 5837 5840 5843 5846 5850 5852 5855 5858 5861 5863 5865 5866 5868 5870 5872 5874 5877 5879 5882 5884 5886 5888 5890 5892 5894 5895 5897 5899 5901 5902 5904 5905 5907 5908 5909 5911 5912 5913 5914
5628 5635 5642 5646 5650 5657 5664 5670 5677 5683 5687 5689 5694 5700 5706 5711 5716 5724 5732 5739 5743 5748 5753 5758 5763 5767 5771 5775 5779 5783 5787 5790 5793 5795 5798 5801 5804 5808 5811 5812 5814 5816 5818 5821 5824 5827 5830 5832 5835 5837 5840 5845 5848 5850 5853 5856 5859 5861 5863 5864 5866 5869 5871 5873 5875 5877 5880 5882 5884 5886 5888 5890 5892 5894 5896 5897 5899 5900 5902 5903 5905 5906 5907 5908 5909 5910 5911
5626 5633 5639 5643 5647 5654 5661 5668 5674 5680 5684 5687 5693 5699 5703 5708 5714 5722 5729 5735 5740 5744 5749 5754 5759 5763 5767 5772 5777 5780 5784 5787 5790 5792 5795 5798 5801 5804 5808 5810 5812 5814 5817 5819 5822 5825 5827 5830 5832 5835 5838 5843 5846 5849 5852 5855 5858 5859 5861 5864 5866 5868 5870 5872 5873 5876 5878 5880 5882 5884 5886 5889 5890 5892 5894 5895 5897 5898 5900 5901 5903 5904 5905 5906 5907 5908 5909
5625 5631 5636 5640 5645 5652 5659 5665 5671 5676 5681 5685 5691 5695 5699 5705 5712 5719 5725 5731 5736 5740 5746 5751 5755 5759 5763 5769 5774 5777 5780 5783 5787 5789 5792 5795 5798 5801 5805 5808 5809 5812 5814 5817 5820 5823 5825 5828 5830 5833 5837 5841 5844 5847 5850 5853 5855 5858 5860 5862 5865 5866 5868 5870 5872 5874 5876 5878 5880 5882 5884 5886 5888 5890 5892 5893 5895 5896 5897 5899 5900 5901 5902 5903 5904 5906 5906
5624 5630 5635 5638 5643 5650 5656 5662 5668 5674 5678 5682 5687 5693 5697 5703 5710 5716 5722 5728 5732 5737 5742 5747 5751 5755 5760 5766 5770 5773 5776 5780 5783 5786 5789 5792 5795 5799 5802 5805 5807 5809 5812 5815 5818 5820 5823 5825 5828 5831 5835 5838 5841 5844 5847 5850 5853 5856 5858 5860 5862 5863 5865 5867 5870 5872 5874 5875 5877 5879 5881 5883 5885 5887 5889 5890 5892 5893 5894 5896 5897 5898 5899 5901 5902 5903 5904
5624 5630 5635 5639 5644 5649 5654 5660 5666 5671 5676 5679 5684 5690 5695 5700 5707 5713 5719 5724 5728 5733 5738 5743 5747 5752 5757 5762 5766 5769 5773 5777 5780 5783 5786 5790 5793 5796 5799 5802 5805 5807 5810 5812 5815 5818 5820 5823 5826 5829 5832 5835 5838 5841 5844 5847 5850 5853 5855 5857 5858 5859 5862 5865 5867 5869 5871 5873 5874 5876 5878 5880 5882 5883 5885 5887 5889 5890 5891 5893 5894 5895 5896 5897 5899 5900 5901
5624 5629 5633 5637 5642 5647 5653 5658 5663 5668 5673 5677 5681 5686 5692 5698 5705 5710 5715 5720 5724 5728 5734 5739 5743 5748 5753 5758 5762 5766 5770 5774 5777 5780 5783 5787 5790 5794 5797 5799 5802 5805 5807 5810 5813 5815 5817 5820 5823 5826 5829 5831 5834 5837 5840 5844 5847 5849 5851 5853 5854 5856 5858 5861 5863 5865 5867 5868 5870 5872 5874 5876 5878 5879 5881 5883 5885 5887 5888 5889 5890 5891 5893 5894 5895 5896 5897
5624 5628 5631 5635 5641 5645 5650 5655 5660 5666 5670 5674 5678 5683 5689 5695 5701 5706 5711 5716 5720 5725 5730 5735 5739 5744 5749 5754 5758 5762 5766 5771 5774 5777 5780 5784 5788 5791 5794 5797 5799 5802 5805 5807 5810 5812 5815 5817 5820 5823 5826 5829 5831 5834 5837 5840 5843 5846 5848 5849 5850 5852 5854 5856 5858 5860 5862 5864 5866 5867 5869 5872 5874 5875 5876 5878 5880 5882 5884 5885 5886 5888 5889 5890 5892 5893 5894
5623 5626 5630 5634 5639 5643 5647 5652 5657 5663 5667 5671 5676 5681 5687 5693 5698 5702 5707 5711 5716 5721 5726 5730 5735 5740 5745 5750 5754 5758 5762 5767 5771 5774 5777 5781 5785 5788 5791 5794 5796 5798 5801 5804 5807 5810 5812 5815 5817 5820 5824 5826 5829 5832 5834 5837 5840 5843 5844 5845 5847 5848 5851 5853 5855 5856 5857 5859 5861 5863 5865 5868 5869 5870 5872 5874 5876 5878 5879 5880 5882 5884 5885 5887 5888 5889 5890
5621 5624 5627 5631 5636 5640 5644 5649 5654 5659 5664 5669 5674 5679 5684 5690 5695 5698 5702 5707 5711 5716 5722 5727 5731 5735 5740 5745 5750 5754 5758 5763 5767 5771 5774 5778 5782 5785 5788 5791 5793 5795 5798 5801 5804 5807 5809 5812 5814 5817 5821 5824 5826 5829 5832 5834 5837 5839 5840 5842 5843 5845 5847 5849 5850 5852 5853 5855 5858 5860 5862 5864 5865 5866 5869 5871 5872 5873 5875 5876 5877 5879 5881 5882 5884 5885 5886
5621 5623 5626 5630 5635 5639 5642 5646 5652 5657 5662 5667 5671 5676 5681 5687 5690 5694 5697 5701 5707 5712 5718 5722 5727 5731 5736 5741 5746 5750 5754 5759 5763 5767 5771 5774 5778 5782 5785 5787 5790 5792 5795 5798 5801 5804 5807 5809 5811 5814 5817 5821 5824 5826 5829 5831 5833 5835 5836 5838 5839 5841 5842 5844 5846 5848 5850 5852 5854 5856 5858 5860 5861 5863 5865 5867 5868 5869 5870 5871 5873 5875 5876 5878 5879 5880 5882
5620 5622 5626 5630 5634 5637 5640 5644 5650 5655 5660 5664 5669 5672 5677 5682 5686 5690 5694 5698 5703 5708 5713 5718 5722 5727 5731 5737 5742 5746 5750 5755 5759 5763 5767 5770 5774 5777 5781 5784 5786 5789 5792 5795 5798 5800 5803 5806 5809 5811 5814 5817 5820 5823 5825 5827 5829 5831 5832 5834 5835 5837 5838 5840 5842 5844 5846 5848 5849 5851 5853 5855 5857 5859 5861 5863 5864 5865 5866 5867 5868 5870 5871 5873 5874 5875 5877
5620 5622 5625 5628 5632 5635 5638 5643 5648 5653 5657 5661 5665 5668 5672 5677 5681 5686 5691 5695 5700 5704 5708 5712 5717 5722 5726 5732 5737 5741 5746 5750 5754 5758 5762 5766 5769 5773 5776 5779 5782 5785 5788 5791 5794 5797 5799 5802 5805 5808 5811 5814 5817 5819 5821 5823 5825 5827 5828 5830 5831 5833 5834 5836 5838 5839 5841 5843 5845 5846 5848 5850 5852 5853 5855 5857 5859 5861 5862 5863 5864 5865 5866 5868 5869 5870 5871
5620 5621 5623 5626 5629 5633 5637 5641 5646 5651 5655 5658 5662 5665 5669 5673 5677 5681 5686 5691 5696 5700 5703 5707 5712 5717 5721 5727 5732 5736 5741 5745 5749 5753 5757 5761 5764 5768 5772 5775 5778 5781 5784 5787 5790 5792 5795 5798 5801 5804 5807 5809 5812 5815 5817 5819 5821 5822 5824 5825 5827 5829 5830 5831 5833 5835 5837 5838 5840 5842 5843 5845 5847 5848 5850 5852 5854 5855 5857 5859 5860 5861 5862 5863 5864 5865 5866
5619 5621 5623 5625 5628 5632 5636 5639 5643 5647 5652 5656 5659 5662 5666 5669 5673 5677 5681 5686 5691 5694 5697 5701 5707 5712 5716 5722 5727 5731 5735 5739 5743 5748 5752 5756 5759 5762 5766 5770 5774 5777 5780 5783 5786 5789 5791 5794 5796 5799 5802 5805 5808 5810 5812 5814 5816 5818 5819 5821 5823 5825 5826 5827 5829 5831 5832 5834 5835 5837 5839 5840 5842 5844 5845 5847 5849 5850 5852 5854 5855 5856 5857 5858 5859 5860 5860
5619 5620 5622 5625 5628 5631 5634 5637 5641 5645 5649 5653 5656 5659 5662 5666 5669 5673 5677 5681 5685 5689 5692 5696 5701 5706 5711 5716 5720 5724 5728 5731 5736 5741 5746 5750 5753 5757 5761 5765 5769 5772 5775 5779 5782 5785 5787 5789 5792 5794 5797 5800 5802 5805 5807 5809 5811 5813 5815 5817 5819 5821 5822 5824 5825 5826 5828 5829 5831 5832 5834 5836 5837 5838 5840 5842 5843 5845 5846 5848 5849 5850 5851 5852 5853 5854 5854
5619 5620 5622 5624 5627 5630 5633 5637 5640 5643 5647 5651 5653 5655 5659 5662 5666 5670 5674 5677 5680 5684 5689 5692 5696 5700 5706 5709 5712 5717 5722 5726 5730 5735 5739 5743 5747 5751 5755 5759 5763 5766 5770 5774 5777 5780 5783 5786 5788 5791 5793 5795 5797 5799 5802 5804 5806 5809 5811 5813 5815 5816 5818 5819 5821 5822 5824 5825 5827 5828 5829 5831 5832 5834 5835 5836 5838 5839 5841 5842 5843 5844 5845 5846 5847 5847 5848
5619 5619 5621 5623 5626 5628 5632 5635 5638 5641 5645 5649 5651 5653 5656 5659 5662 5665 5669 5673 5676 5680 5685 5688 5691 5695 5700 5703 5706 5711 5717 5721 5725 5728 5731 5735 5740 5745 5749 5753 5757 5760 5763 5767 5771 5775 5778 5781 5784 5786 5789 5791 5793 5795 5797 5800 5802 5804 5806 5808 5810 5812 5813 5815 5816 5818 5819 5821 5822 5824 5825 5826 5828 5829 5830 5831 5833 5834 5835 5836 5837 5838 5839 5840 5841 5842 5842
5618 5619 5620 5622 5624 5626 5630 5633 5636 5639 5642 5646 5649 5651 5654 5656 5659 5662 5665 5668 5671 5676 5680 5683 5686 5690 5694 5697 5700 5705 5709 5713 5717 5721 5724 5728 5732 5737 5742 5747 5750 5754 5757 5760 5764 5768 5772 5775 5778 5781 5784 5786 5788 5790 5793 5795 5797 5799 5801 5803 5805 5807 5808 5810 5812 5814 5815 5817 5818 5819 5820 5822 5823 5824 5825 5827 5828 5829 5830 5831 5832 5832 5833 5834 5835 5836 5837
5617 5618 5619 5620 5622 5625 5627 5630 5633 5636 5639 5643 5645 5648 5651 5654 5656 5659 5661 5663 5667 5671 5674 5677 5681 5685 5689 5693 5696 5699 5701 5704 5708 5712 5717 5722 5725 5729 5734 5738 5742 5746 5750 5754 5757 5761 5764 5768 5771 5775 5778 5781 5783 5785 5787 5789 5791 5794 5796 5798 5800 5802 5804 5805 5807 5809 5811 5812 5813 5814 5816 5817 5818 5819 5820 5822 5823 5824 5825 5826 5826 5826 5827 5829 5830 5830 5831
5615 5617 5618 5619 5621 5623 5625 5628 5631 5633 5636 5639 5641 5644 5648 5651 5653 5656 5658 5659 5662 5665 5669 5673 5677 5680 5684 5688 5691 5693 5696 5699 5701 5704 5709 5714 5719 5722 5725 5729 5734 5739 5742 5746 5750 5754 5757 5760 5764 5767 5771 5774 5777 5779 5782 5784 5786 5788 5790 5792 5795 5797 5799 5801 5802 5804 5806 5807 5808 5810 5811 5812 5813 5814 5816 5817 5818 5819 5820 5820 5820 5820 5822 5824 5825 5825 5826
5614 5615 5616 5618 5619 5621 5623 5626 5629 5631 5634 5636 5638 5641 5644 5647 5650 5652 5654 5655 5658 5660 5664 5667 5671 5674 5678 5682 5685 5688 5691 5695 5698 5700 5702 5705 5710 5714 5718 5722 5726 5731 5734 5737 5741 5745 5749 5753 5757 5760 5763 5766 5769 5772 5775 5777 5780 5782 5784 5786 5789 5791 5793 5795 5797 5799 5801 5802 5803 5804 5806 5807 5808 5809 5810 5812 5813 5814 5814 5815 5814 5813 5815 5818 5821 5821 5822
5613 5613 5614 5616 5617 5619 5621 5623 5626 5629 5632 5634 5635 5637 5640 5643 5646 5648 5650 5651 5654 5656 5659 5662 5666 5669 5672 5675 5679 5683 5686 5690 5693 5697 5699 5699 5700 5704 5710 5715 5719 5723 5726 5729 5732 5735 5739 5744 5749 5753 5756 5760 5762 5765 5768 5771 5773 5776 5778 5780 5782 5785 5787 5789 5791 5793 5795 5797 5798 5799 5800 5801 5803 5804 5805 5806 5807 5808 5808 5809 5808 5808 5808 5811 5815 5817 5817
5612 5612 5612 5613 5615 5616 5618 5620 5623 5626 5628 5631 5633 5635 5636 5639 5641 5644 5646 5647 5649 5651 5654 5657 5661 5664 5667 5669 5673 5676 5680 5684 5687 5691 5695 5696 5696 5698 5701 5706 5711 5715 5720 5723 5725 5727 5731 5735 5740 5745 5749 5752 5755 5758 5761 5764 5767 5770 5772 5774 5776 5779 5781 5783 5786 5787 5789 5791 5792 5794 5795 5796 5797 5798 5799 5800 5801 5802 5802 5803 5803 5803 5803 5805 5808 5809 5810
5611 5611 5611 5611 5612 5613 5615 5616 5618 5621 5624 5627 5630 5632 5633 5635 5637 5639 5641 5643 5645 5647 5649 5652 5655 5658 5660 5663 5666 5669 5673 5677 5680 5684 5688 5692 5694 5695 5696 5699 5703 5708 5712 5715 5718 5720 5723 5727 5732 5737 5741 5744 5747 5750 5754 5757 5760 5763 5765 5768 5770 5772 5775 5777 5779 5781 5783 5785 5787 5788 5789 5791 5792 5793 5794 5794 5795 5796 5797 5797 5798 5798 5799 5800 5801 5802 5803
5611 5610 5610 5610 5610 5611 5611 5613 5614 5616 5618 5621 5625 5628 5630 5631 5633 5635 5637 5639 5641 5643 5645 5647 5649 5652 5654 5657 5659 5662 5666 5670 5674 5677 5681 5684 5688 5691 5693 5695 5698 5702 5705 5708 5711 5713 5716 5720 5724 5728 5732 5736 5739 5742 5745 5748 5751 5754 5757 5760 5763 5766 5768 5770 5772 5774 5777 5779 5781 5782 5784 5785 5786 5787 5788 5788 5789 5790 5791 5791 5791 5792 5794 5795 5796 5796 5797
5610 5609 5609 5609 5609 5609 5609 5609 5611 5612 5614 5616 5619 5623 5626 5628 5630 5631 5633 5635 5637 5640 5641 5643 5645 5647 5649 5651 5654 5656 5659 5662 5665 5669 5672 5676 5680 5684 5687 5690 5693 5697 5700 5703 5706 5709 5711 5713 5716 5720 5724 5728 5732 5735 5739 5741 5744 5746 5749 5752 5755 5759 5761 5764 5766 5768 5770 5772 5774 5776 5777 5779 5780 5781 5782 5782 5782 5783 5784 5785 5786 5786 5787 5788 5789 5790 5790
5608 5608 5608 5607 5607 5607 5607 5607 5607 5608 5610 5612 5614 5617 5620 5623 5625 5626 5628 5630 5632 5634 5637 5639 5641 5642 5644 5647 5649 5651 5653 5656 5658 5660 5664 5667 5671 5675 5678 5682 5686 5690 5694 5697 5701 5704 5706 5708 5710 5712 5716 5720 5723 5726 5730 5733 5736 5739 5742 5745 5748 5751 5754 5756 5759 5761 5763 5765 5767 5769 5771 5773 5774 5775 5775 5775 5776 5777 5778 5779 5780 5780 5781 5781 5782 5782 5783
5606 5606 5606 5605 5605 5605 5606 5606 5606 5606 5607 5608 5610 5612 5615 5617 5619 5620 5623 5625 5627 5629 5631 5634 5635 5637 5640 5642 5644 5646 5648 5650 5652 5654 5657 5660 5663 5666 5670 5674 5677 5682 5685 5689 5693 5697 5700 5702 5704 5707 5709 5712 5715 5718 5722 5725 5727 5731 5734 5737 5740 5743 5746 5749 5751 5754 5756 5758 5761 5763 5765 5766 5768 5769 5769 5769 5770 5770 5771 5772 5773 5774 5774 5774 5774 5774 5775
5603 5603 5603 5603 5603 5603 5604 5604 5604 5604 5604 5605 5606 5607 5609 5612 5613 5615 5617 5619 5621 5623 5625 5627 5629 5631 5634 5636 5637 5640 5642 5644 5646 5649 5651 5653 5655 5659 5662 5665 5669 5673 5677 5681 5685 5688 5691 5695 5698 5701 5703 5706 5709 5712 5715 5717 5720 5723 5726 5729 5732 5735 5738 5741 5743 5746 5749 5751 5754 5756 5758 5760 5761 5762 5763 5763 5764 5764 5765 5766 5766 5767 5767 5766 5766 5766 5766
5599 5599 5600 5600 5599 5600 5600 5601 5601 5602 5602 5602 5602 5603 5604 5606 5608 5610 5612 5613 5615 5616 5618 5620 5622 5625 5628 5630 5631 5633 5635 5637 5639 5642 5644 5647 5649 5652 5655 5658 5661 5664 5668 5672 5676 5679 5682 5686 5690 5693 5696 5699 5702 5705 5708 5711 5714 5716 5719 5722 5724 5727 5730 5733 5736 5738 5742 5744 5747 5749 5751 5753 5755 5756 5756 5757 5758 5758 5759 5759 5759 5759 5759 5759 5758 5757 5757
5596 5595 5596 5596 5596 5596 5596 5596 5597 5598 5598 5599 5599 5600 5601 5602 5603 5605 5606 5608 5609 5611 5612 5613 5616 5619 5621 5624 5626 5627 5629 5631 5633 5635 5638 5640 5643 5645 5648 5650 5653 5656 5659 5663 5666 5670 5673 5677 5680 5684 5687 5690 5693 5697 5700 5703 5706 5709 5712 5715 5718 5720 5723 5726 5729 5732 5734 5737 5739 5741 5743 5746 5747 5748 5749 5750 5751 5751 5752 5752 5752 5752 5752 5751 5751 5750 5750
5593 5592 5592 5593 5593 5593 5593 5592 5592 5593 5594 5595 5596 5597 5598 5599 5599 5601 5602 5603 5604 5605 5607 5609 5611 5613 5615 5617 5620 5622 5623 5625 5627 5629 5631 5634 5636 5638 5640 5643 5645 5648 5650 5654 5657 5661 5665 5668 5672 5675 5678 5681 5684 5688 5691 5694 5697 5701 5704 5708 5711 5714 5717 5719 5722 5725 5727 5729 5731 5734 5736 5738 5739 5741 5742 5742 5743 5744 5745 5745 5746 5746 5746 5745 5745 5745 5744
5591 5590 5589 5589 5590 5590 5590 5590 5589 5589 5589 5590 5591 5592 5593 5595 5596 5597 5598 5599 5600 5602 5604 5606 5607 5608 5610 5612 5614 5616 5618 5619 5621 5623 5625 5628 5630 5631 5633 5636 5638 5640 5643 5645 5648 5652 5656 5660 5664 5667 5670 5673 5675 5678 5681 5685 5688 5692 5695 5699 5703 5706 5709 5712 5715 5718 5720 5722 5724 5726 5728 5730 5731 5733 5734 5735 5736 5737 5737 5738 5738 5739 5739 5739 5740 5740 5739
5588 5588 5587 5587 5587 5587 5588 5587 5587 5586 5586 5587 5587 5588 5589 5591 5592 5594 5595 5596 5598 5600 5602 5603 5605 5605 5606 5607 5609 5611 5612 5614 5615 5617 5618 5621 5623 5624 5626 5629 5631 5633 5635 5637 5639 5643 5647 5651 5654 5658 5661 5664 5666 5669 5672 5676 5679 5682 5686 5690 5694 5697 5700 5703 5706 5709 5712 5714 5717 5719 5720 5722 5724 5725 5726 5727 5728 5729 5730 5730 5731 5731 5731 5731 5731 5732 5731
5585 5585 5585 5584 5585 5585 5585 5585 5585 5584 5584 5584 5585 5586 5586 5587 5588 5590 5592 5594 5595 5597 5599 5600 5602 5603 5603 5604 5605 5606 5607 5609 5610 5611 5612 5614 5616 5617 5619 5621 5623 5626 5628 5630 5632 5635 5638 5641 5645 5648 5651 5654 5657 5660 5664 5667 5670 5674 5677 5681 5684 5688 5691 5694 5697 5700 5702 5705 5707 5710 5712 5713 5715 5717 5718 5719 5720 5721 5721 5722 5722 5723 5723 5723 5722 5722 5722
5583 5583 5582 5582 5582 5582 5582 5583 5583 5582 5582 5582 5583 5584 5584 5584 5584 5585 5587 5590 5592 5594 5595 5597 5598 5599 5601 5601 5602 5603 5604 5604 5605 5607 5608 5609 5610 5611 5613 5615 5616 5619 5621 5624 5627 5629 5631 5633 5636 5639 5642 5645 5648 5651 5655 5658 5661 5664 5668 5672 5675 5678 5681 5684 5687 5690 5692 5695 5697 5700 5702 5704 5705 5707 5708 5709 5710 5711 5712 5712 5713 5713 5714 5714 5714 5713 5712
5581 5580 5580 5580 5579 5579 5580 5580 5580 5580 5580 5580 5581 5582 5582 5582 5582 5582 5583 5584 5586 5588 5591 5593 5595 5596 5597 5598 5599 5600 5600 5601 5602 5603 5604 5605 5606 5606 5607 5608 5610 5613 5616 5619 5622 5624 5627 5628 5630 5632 5635 5637 5640 5642 5646 5649 5652 5655 5659 5662 5665 5669 5672 5675 5677 5680 5682 5685 5687 5689 5691 5693 5695 5696 5698 5699 5700 5701 5701 5702 5703 5703 5704 5704 5704 5704 5704
5578 5578 5577 5577 5577 5577 5577 5577 5577 5577 5577 5578 5578 5579 5579 5580 5580 5580 5580 5580 5581 5582 5584 5587 5589 5591 5593 5594 5595 5596 5596 5597 5598 5599 5600 5600 5601 5601 5602 5603 5605 5607 5611 5614 5616 5620 5624 5626 5627 5628 5630 5632 5634 5636 5639 5641 5644 5647 5650 5653 5656 5659 5662 5665 5668 5670 5672 5674 5676 5678 5680 5682 5684 5685 5687 5688 5690 5691 5692 5692 5693 5693 5694 5694 5694 5694 5694
5574 5574 5574 5574 5574 5575 5575 5575 5575 5574 5574 5575 5575 5576 5576 5577 5578 5578 5578 5578 5578 5578 5579 5581 5583 5585 5587 5589 5590 5591 5592 5593 5594 5595 5596 5596 5597 5598 5599 5599 5600 5602 5605 5609 5612 5615 5618 5622 5623 5624 5626 5628 5629 5631 5633 5635 5638 5640 5643 5645 5648 5650 5653 5655 5658 5660 5663 5664 5666 5668 5669 5671 5673 5674 5676 5678 5679 5681 5682 5682 5683 5683 5683 5684 5684 5684 5683